Location: Fort Hays State University
(38.8712°N, 99.3432°W)
Time: 06:31:01
(UTC-05:00)

Cosmos 2279 Rocket - Visible Passes

Search period start: 21 April 2018 00:00
Search period end: 01 May 2018 00:00
Orbit: 965 x 979 km, 82.9° (Epoch: 20 April)

Date Brightness Start Highest point End Pass type
(mag) Time Alt. Az. Time Alt. Az. Time Alt. Az.
21 Apr 4.4 03:57:10 48° SE 03:58:29 57° E 04:04:36 10° NNE visible
21 Apr 5.3 05:41:46 17° W 05:44:10 21° WNW 05:48:44 10° NNW visible
22 Apr 6.3 02:36:56 12° E 02:38:17 13° E 02:41:05 10° NE visible
22 Apr 3.9 04:21:32 61° SSW 04:22:41 81° W 04:28:59 10° N visible
22 Apr 5.9 06:07:23 10° W 06:08:59 11° WNW 06:10:35 10° NW visible
23 Apr 5.6 03:01:16 24° E 03:02:08 25° E 03:07:04 10° NNE visible
23 Apr 4.3 04:45:51 41° WSW 04:47:03 45° WNW 04:53:04 10° N visible
24 Apr 4.7 03:25:34 44° ESE 03:26:07 45° E 03:32:02 10° NNE visible
24 Apr 5.1 05:10:10 24° W 05:11:35 26° WNW 05:16:43 10° NNW visible
25 Apr 3.9 03:49:52 77° SSE 03:50:16 82° E 03:56:33 10° N visible
25 Apr 5.7 05:34:27 13° W 05:36:19 14° WNW 05:39:31 10° NW visible
26 Apr 5.8 02:29:32 20° E 02:29:51 20° E 02:34:11 10° NE visible
26 Apr 4.0 04:14:08 55° W 04:14:35 57° W 04:20:44 10° N visible
27 Apr 5.0 02:53:48 36° E 02:53:48 36° E 02:59:24 10° NNE visible
27 Apr 4.8 04:38:23 31° W 04:39:02 32° WNW 04:44:35 10° NNW visible
28 Apr 4.2 03:18:01 66° E 03:18:01 66° E 03:24:05 10° NNE visible
28 Apr 5.5 05:02:36 17° W 05:03:42 18° WNW 05:07:49 10° NNW visible
29 Apr 6.1 01:57:39 16° E 01:57:39 16° E 02:01:07 10° NE visible
29 Apr 3.9 03:42:14 71° WNW 03:42:14 71° WNW 03:48:22 10° N visible
30 Apr 5.4 02:21:51 29° E 02:21:51 29° E 02:26:42 10° NNE visible
30 Apr 4.6 04:06:26 39° WNW 04:06:31 39° WNW 04:12:21 10° N visible
